Regional Weather Roundup
Issued by NWS State College, PA

Home | Current Version | Previous Version | Graphics & Text | Print | Product List | Glossary On
Versions: 1 2 3 4 5 6 7 8 9 10 11 12 13 14 15 16 17 18 19 20 21 22 23 24 25 26 27 28 29 30 31 32 33 34 35 36 37 38 39 40 41 42 43 44 45 46 47 48 49 50
000
ASUS41 KCTP 242003
RWRCTP

REGIONAL WEATHER ROUNDUP
NATIONAL WEATHER SERVICE STATE COLLEGE PA
300 PM EST MON NOV 24 2014

Note: "fair" indicates few or no clouds below 12,000 feet with no
significant weather and/or obstructions to visibility.

* = STATION THAT DOES NOT REPORT PRECIPITATION /E.G. RAIN...SNOW...ETC/
    THUNDER OR FOG.

PAZ002>004-007>009-013>016-020>023-029>032-242100-
WESTERN PENNSYLVANIA

CITY           SKY/WX    TMP DP  RH WIND       PRES   REMARKS
ERIE           CLOUDY    59  49  69 SW28G41   29.32R
MEADVILLE      PTSUNNY   57  48  72 SW17G28   29.38R
FRANKLIN*      CLOUDY    63  43  48 SW17G47   29.42R
NEW CASTLE       N/A     64  46  52 SW24G44   29.43R
BEAVER COUNTY  CLOUDY    64  43  45 SW23G40   29.43R
BUTLER*        PTSUNNY   66  41  39 SW23G35   29.46R
PITTSBURGH INT LGT RAIN  65  42  43 SW28G49   29.45R
PITTSBURGH     MOSUNNY   68  38  33 SW24G52   29.46R
INDIANA*       MOSUNNY   68  43  40 W30G43    29.50R
LATROBE        MOSUNNY   68  43  40 MISG      29.50R
WASHINGTON CO* PTSUNNY   66  43  42 SW24G35   29.49R
$$

PAZ004>006-010>012-017>019-024>028-033>037-041-042-045-046-049>053-242100-
CENTRAL PENNSYLVANIA

CITY           SKY/WX    TMP DP  RH WIND       PRES   REMARKS
BRADFORD       PTSUNNY   61  41  47 S14G33    29.41R
DUBOIS         PTSUNNY   65  40  39 SW22G44   29.43R
CLEARFIELD     PTSUNNY   67  39  35 SW16G37   29.45R
JOHNSTOWN      PTSUNNY   65  38  36 SW17G35   29.50R
ALTOONA        PTSUNNY   66  49  54 S14       29.51R
STATE COLLEGE  MOSUNNY   64  52  63 S16G23    29.47F
WILLIAMSPORT   SUNNY     68  52  56 SE18G36   29.46R
SELINSGROVE    PTSUNNY   68  52  56 S17G30    29.51R
FT INDIANTOWN  MOSUNNY   69  54  60 S13G25    29.56R
CAPITAL CITY   SUNNY     70  52  52 SW17G29   29.55R
HARRISBURG     MOSUNNY   69  51  52 SW9G26    29.55R
YORK           SUNNY     69  53  56 S9G21     29.56R
$$

PAZ038>040-043-044-047-048-054-055-060>062-067>071-242100-
EASTERN PENNSYLVANIA

CITY           SKY/WX    TMP DP  RH WIND       PRES   REMARKS
SCRANTON       PTSUNNY   69  52  54 S22G37    29.50R
MOUNT POCONO   MOSUNNY   63  52  67 SW23G32   29.55R
ALLENTOWN      PTSUNNY   68  53  58 S23G29    29.57R
QUAKERTOWN*    PTCLDY    68  55  64 SW17G24   29.59R
READING        MOSUNNY   68  54  60 S17G26    29.55R
LANCASTER      SUNNY     68  53  58 SW15G25   29.57R
COATESVILLE    PTCLDY    66  55  68 S12G22    29.61R
POTTSTOWN      MOSUNNY   68  54  60 SW14G25   29.60F
BLUE BELL      MOSUNNY   70  55  60 S22G28    29.59S
DOYLESTOWN     MOSUNNY   66  55  67 S16G26    29.58F
WILLOW GROVE   NOT AVBL
NORTH PHILA    MOSUNNY   72  54  53 SW14G24   29.61F
PHILADELPHIA   MOSUNNY   71  55  56 SW21G32   29.61F
$$



USA.gov is the U.S. government's official web portal to all federal, state and local government web resources and services.